Volver al catálogo

FENGYUN 1C DEB

ActivoSSO
NORAD 35089·DEBRIS·🇨🇳 China

Lanzado May 10, 1999 desde Taiyuan Satellite Launch Center

Loading…

Próximos Pases (próximas 24 horas)

TLE

ActualizadoSource: Space-Track

Época: Sep 14, 2026, 23:10 UTC

1 35089U 99025DJR 26257.96555149  .00000758  00000-0  37386-3 0  9996
2 35089  98.5566 263.6667 0027072 345.4344  14.6050 14.20141199647956

Sigue FENGYUN 1C DEB en tiempo real con AllMySat

Download on the App Store